Location: Buckhorn Peak
(37.6641°N, 120.1241°W)
Time: 23:17:07
(UTC+00:00)

Vanguard 1 Rocket - Pass Details

Date: 11 November 2024
Orbit: 650 x 4218 km, 34.3° (Epoch: 06 December)

Event Time Altitude Azimuth Distance (km) Brightness Sun altitude
Rises 01:56:18 0° 281° (WNW) 6,059 12.9 -12.9°
Reaches altitude 10° 02:01:18 10° 276° (W) 4,436 12.1 -13.8°
Maximum altitude 02:11:00 40° 212° (SSW) 1,732 9.1 -15.7°
Drops below altitude 10° 02:16:35 10° 143° (SE) 2,554 9.4 -16.8°
Enters shadow 02:17:32 - 138° (SE) 2,868 9.7 -17.0°
